Zurück zum Katalog

SL-12 DEB

LostHEO
NORAD 26803·DEBRIS·🇷🇺 Russia

Gestartet Dec 24, 1985 von Baikonur Cosmodrome

Loading…

Nächste Überflüge (nächste 24 Stunden)

TLE

VeraltetSource: Space-Track

Epoche: Mar 21, 2021, 08:47 UTC

1 26803U 85118AA  21080.36642292  .00630124  00000-0  10940+0 0  9996
2 26803  64.1013 177.6370 2763067 351.0212   4.9534  9.62153141511534

Verfolge SL-12 DEB in Echtzeit mit AllMySat

Download on the App Store